Hourly Weather Roundup
Issued by NWS Central Illinois

Home | Current Version | Previous Version | Text Only | Print | Product List | Glossary On
Versions: 1 2 3 4 5 6 7 8 9 10 11 12 13 14 15 16 17 18 19 20 21 22 23 24 25 26 27 28 29 30 31 32 33 34 35 36 37 38 39 40 41 42 43 44 45 46 47 48 49 50
000
NZUS43 KILX 220210
HWRILX

Area Weather Roundup
National Weather Service Lincoln IL
800 PM CST TUE NOV 21 2017

NOTE:  "FAIR" indicates few or no clouds below 12,000 feet, with
       no sigificant weather and/or obstructions to visibility.


CITY           SKY/WX    TMP DP  RH WIND       PRES   REMARKS
Bloomington    CLEAR     30  21  69 NW10      30.18R WCI  21
Champaign      CLEAR     30  24  78 NW9       30.18R WCI  22
Danville       CLEAR     31  25  80 NW9       30.13R WCI  23
Decatur        CLEAR     31  21  66 NW9       30.20R WCI  23
Effingham      CLEAR     35  25  67 NW15G23   30.20R WCI  25
Flora          CLOUDY    39  24  56 N15       30.17R WCI  30
Galesburg      CLEAR     27  21  77 NW10      30.24S WCI  18
Jacksonville   CLEAR     28  21  75 NW8       30.25R WCI  20
Lacon          CLEAR     29  21  71 NW9       30.21R WCI  20
Lawrenceville  CLOUDY    41  28  60 NW22      30.14R WCI  31
Litchfield     CLEAR     31  22  69 N17       30.22R WCI  20
$$


CITY           SKY/WX    TMP DP  RH WIND       PRES   REMARKS
Lincoln        CLEAR     31  23  71 NW5       30.21S WCI  26
Macomb         CLEAR     28  21  76 NW10      30.27R WCI  18
Mattoon        CLEAR     31  24  75 NW13      30.17R WCI  21
Mt Carmel AP   CLOUDY    41  29  62 NW17G25   30.12R WCI  32
Olney-Noble AP CLOUDY    37  22  53 NW21G26   30.17R WCI  27
Paris AP       CLEAR     31  26  81 NW12      30.17S WCI  21
Peoria         CLEAR     30  19  63 NW8       30.22R WCI  22
Pontiac        CLEAR     31  25  80 NW8       30.18S WCI  23
Rantoul        CLEAR     32  26  78 NW7       30.17R WCI  26
Robinson       CLOUDY    37  27  68 N22G29    30.15R WCI  26
Springfield    CLEAR     31  21  66 NW9       30.23R WCI  23
Taylorville    CLEAR     31  22  70 NW9       30.22R WCI  23
$$

...REGIONAL REPORTS...


CITY           SKY/WX    TMP DP  RH WIND       PRES   REMARKS
Chicago O`Hare PTCLDY    30  15  53 NW15      30.15R WCI  19
Kankakee       CLEAR     31  23  72 NW7       30.16R WCI  24
Moline         CLEAR     29  17  61 NW12      30.23R WCI  19
Mount Sterling CLEAR     29  20  70 NW10      30.25R WCI  20
Mount Vernon   PTCLDY    41  25  53 VRB5      30.17R
Pittsfield     CLEAR     31  21  67 NW9       30.27R WCI  23
Quincy         CLEAR     29  20  69 NW8       30.26R WCI  21
Rockford       CLEAR     27  14  58 NW7       30.20R WCI  19
$$


CITY           SKY/WX    TMP DP  RH WIND       PRES   REMARKS
Burlington     CLEAR     29  19  66 NW10G20   30.26R WCI  20
Cedar Rapids   CLEAR     23  16  74 NW12      30.26R WCI  12
Des Moines     CLEAR     28  11  48 NW13G21   30.33R WCI  17
Kirksville     CLEAR     30  19  63 NW9       30.30R WCI  22
Ottumwa        CLEAR     26  15  63 NW13      30.29R WCI  15
St Louis       CLEAR     36  23  59 N9        30.24R WCI  29
$$


CITY           SKY/WX    TMP DP  RH WIND       PRES   REMARKS
Terre Haute    CLOUDY    34  24  67 NW14G22   30.15R WCI  25
Evansville     CLOUDY    47  32  56 N17G25    30.11R
Indianapolis   CLOUDY    34  29  82 NW16      30.10R WCI  24
Lafayette      CLEAR     31  24  75 NW10      30.13R WCI  22
Madison        CLEAR     25  13  60 NW12G21   30.17R WCI  14
Milwaukee      PTCLDY    29  15  56 NW8       30.14R WCI  21
$$





USA.gov is the U.S. government's official web portal to all federal, state and local government web resources and services.